{"data":{"norad_id":58677,"epoch":"2026-09-20T17:09:04.547808Z","epoch_age_seconds":131200,"freshness":"FRESH","line1":"1 58677U 23211L   26263.71463597  .00000092  00000+0  12861-4 0  9995","line2":"2 58677  43.0041  63.6659 0001398 276.9865  83.0828 15.27576946152296","mean_motion":15.27576946,"eccentricity":0.0001398,"inclination_deg":43.0041,"raan_deg":63.6659,"arg_perigee_deg":276.9865,"mean_anomaly_deg":83.0828,"bstar":1.2861e-5,"rev_number":15229,"period_min":94.266937175942,"perigee_km":482.09904573489,"apogee_km":484.01743592423,"semimajor_km":6861.1952408296,"source":"CELESTRAK","updated_at":"2026-09-21T09:00:33.943942Z"}}